LOT29K EDDF-EPWA

Flight info

Callsign LOT29K
Flight time 1h 20m
Altitude 19000
Route SULUS4D/07C SULUS L984 OKG BALTU LEGAZ LAGAR OKENO Q277 AGAVA AGAV5U
Aircraft B738/M-SDE2E3FGHIRWXY/S

Departure

Time 2026-04-15 11:39
Airport Frankfurt Main Airport (EDDF)

Arrival

Time 2026-04-15 12:59
Airport Warsaw Chopin Airport (EPWA)
Time Latitude Longitude Altitude Speed Heading
2026-04-15 11:21 50.04688 8.56700 355 ft 0 kts 116°
2026-04-15 11:27 50.04694 8.56679 358 ft 2 kts 119°
2026-04-15 11:27 50.04702 8.56657 358 ft 2 kts 122°
2026-04-15 11:27 50.04711 8.56636 357 ft 2 kts 129°
2026-04-15 11:27 50.04723 8.56618 360 ft 2 kts 154°
2026-04-15 11:28 50.04738 8.56620 359 ft 2 kts 232°
2026-04-15 11:28 50.04747 8.56641 360 ft 2 kts 234°
2026-04-15 11:28 50.04759 8.56658 362 ft 2 kts 208°
2026-04-15 11:28 50.04766 8.56663 361 ft 0 kts 206°
2026-04-15 11:32 50.04757 8.56653 358 ft 0 kts 219°
2026-04-15 11:33 50.04750 8.56643 360 ft 2 kts 224°
2026-04-15 11:33 50.04716 8.56538 357 ft 19 kts 249°
2026-04-15 11:33 50.04667 8.56334 358 ft 20 kts 250°
2026-04-15 11:33 50.04620 8.56136 359 ft 19 kts 250°
2026-04-15 11:34 50.04568 8.55948 357 ft 19 kts 219°
2026-04-15 11:34 50.04475 8.55899 360 ft 12 kts 198°
2026-04-15 11:34 50.04394 8.55905 360 ft 12 kts 162°
2026-04-15 11:34 50.04316 8.55943 358 ft 12 kts 162°
2026-04-15 11:35 50.04240 8.55939 361 ft 12 kts 205°
2026-04-15 11:35 50.04146 8.55944 361 ft 18 kts 158°
2026-04-15 11:35 50.04064 8.55962 356 ft 12 kts 214°
2026-04-15 11:35 50.04028 8.55854 358 ft 11 kts 244°
2026-04-15 11:36 50.04007 8.55775 358 ft 13 kts 249°
2026-04-15 11:36 50.03964 8.55598 361 ft 22 kts 250°
2026-04-15 11:36 50.03901 8.55335 358 ft 30 kts 249°
2026-04-15 11:36 50.03824 8.55009 360 ft 33 kts 250°
2026-04-15 11:37 50.03748 8.54691 360 ft 30 kts 249°
2026-04-15 11:37 50.03678 8.54398 362 ft 28 kts 249°
2026-04-15 11:37 50.03611 8.54122 359 ft 26 kts 249°
2026-04-15 11:37 50.03551 8.53865 355 ft 25 kts 249°
2026-04-15 11:38 50.03491 8.53614 359 ft 26 kts 249°
2026-04-15 11:38 50.03377 8.53487 356 ft 23 kts 136°
2026-04-15 11:38 50.03326 8.53724 350 ft 24 kts 71°
2026-04-15 11:38 50.03443 8.54208 353 ft 84 kts 69°
2026-04-15 11:39 50.03730 8.55391 357 ft 150 kts 69°
2026-04-15 11:39 50.04135 8.57031 824 ft 172 kts 68°
2026-04-15 11:39 50.04578 8.58828 1674 ft 177 kts 70°
2026-04-15 11:39 50.05002 8.60706 2473 ft 197 kts 72°
2026-04-15 11:40 50.05466 8.62802 2832 ft 217 kts 65°
2026-04-15 11:40 50.05925 8.65063 3399 ft 222 kts 94°
2026-04-15 11:40 50.05473 8.67363 3867 ft 226 kts 108°
2026-04-15 11:40 50.05627 8.69681 3907 ft 227 kts 60°
2026-04-15 11:41 50.06135 8.71962 3754 ft 230 kts 101°
2026-04-15 11:41 50.05229 8.73899 4518 ft 224 kts 146°
2026-04-15 11:41 50.03954 8.75325 5276 ft 231 kts 129°
2026-04-15 11:41 50.03276 8.77565 6179 ft 232 kts 107°
2026-04-15 11:42 50.03083 8.80119 6945 ft 244 kts 88°
2026-04-15 11:42 50.03191 8.82729 7845 ft 244 kts 88°
2026-04-15 11:42 50.03292 8.85409 8606 ft 251 kts 88°
2026-04-15 11:42 50.03383 8.88203 9171 ft 269 kts 88°
2026-04-15 11:43 50.03489 8.91276 9415 ft 299 kts 88°
2026-04-15 11:43 50.03605 8.94661 9661 ft 327 kts 87°
2026-04-15 11:43 50.03721 8.98344 9898 ft 354 kts 88°
2026-04-15 11:43 50.03843 9.02308 10133 ft 378 kts 88°
2026-04-15 11:44 50.03969 9.06464 10677 ft 389 kts 88°
2026-04-15 11:44 50.04095 9.10690 11434 ft 392 kts 88°
2026-04-15 11:44 50.04215 9.14953 12179 ft 396 kts 88°
2026-04-15 11:44 50.04335 9.19261 12845 ft 401 kts 88°
2026-04-15 11:45 50.04451 9.23615 13544 ft 405 kts 88°
2026-04-15 11:45 50.04570 9.28015 14197 ft 409 kts 88°
2026-04-15 11:45 50.04688 9.32459 14750 ft 412 kts 88°
2026-04-15 11:45 50.04913 9.36926 15285 ft 416 kts 80°
2026-04-15 11:46 50.05656 9.41288 15839 ft 419 kts 71°
2026-04-15 11:46 50.06568 9.45617 16375 ft 422 kts 72°
2026-04-15 11:46 50.07472 9.49988 16871 ft 426 kts 72°
2026-04-15 11:46 50.08364 9.54404 17366 ft 430 kts 72°
2026-04-15 11:47 50.09238 9.58810 17836 ft 433 kts 73°
2026-04-15 11:47 50.10117 9.63308 18281 ft 435 kts 73°
2026-04-15 11:47 50.10995 9.67844 18731 ft 439 kts 73°
2026-04-15 11:47 50.11876 9.72421 19091 ft 442 kts 73°
2026-04-15 11:48 50.12755 9.77005 19204 ft 442 kts 73°
2026-04-15 11:48 50.13634 9.81590 19242 ft 442 kts 73°
2026-04-15 11:48 50.14513 9.86189 19247 ft 443 kts 73°
2026-04-15 11:48 50.15391 9.90790 19244 ft 443 kts 73°
2026-04-15 11:49 50.16268 9.95407 19262 ft 443 kts 73°
2026-04-15 11:49 50.17140 10.00013 19257 ft 443 kts 73°
2026-04-15 11:49 50.18010 10.04619 19265 ft 443 kts 73°
2026-04-15 11:49 50.18883 10.09239 19269 ft 444 kts 73°
2026-04-15 11:50 50.19754 10.13852 19280 ft 443 kts 73°
2026-04-15 11:50 50.20623 10.18474 19265 ft 443 kts 73°
2026-04-15 11:50 50.21487 10.23084 19257 ft 443 kts 73°
2026-04-15 11:50 50.22344 10.27695 19274 ft 442 kts 73°
2026-04-15 11:51 50.23204 10.32310 19266 ft 443 kts 73°
2026-04-15 11:51 50.24067 10.36917 19270 ft 442 kts 73°
2026-04-15 11:51 50.24929 10.41530 19265 ft 442 kts 73°
2026-04-15 11:51 50.25781 10.46133 19254 ft 441 kts 73°
2026-04-15 11:52 50.26629 10.50741 19249 ft 441 kts 73°
2026-04-15 11:52 50.27475 10.55345 19244 ft 440 kts 74°
2026-04-15 11:52 50.28318 10.59946 19246 ft 440 kts 73°
2026-04-15 11:52 50.29158 10.64537 19242 ft 440 kts 74°
2026-04-15 11:53 50.29999 10.69141 19243 ft 440 kts 74°
2026-04-15 11:53 50.30838 10.73738 19243 ft 440 kts 74°
2026-04-15 11:53 50.31676 10.78346 19238 ft 440 kts 74°
2026-04-15 11:53 50.32513 10.82961 19240 ft 440 kts 74°
2026-04-15 11:54 50.33348 10.87574 19241 ft 441 kts 74°
2026-04-15 11:54 50.34171 10.92135 19238 ft 441 kts 74°
2026-04-15 11:54 50.35004 10.96759 19235 ft 442 kts 74°
2026-04-15 11:54 50.35835 11.01390 19230 ft 442 kts 74°
2026-04-15 11:55 50.36665 11.06023 19236 ft 442 kts 74°
2026-04-15 11:55 50.37493 11.10661 19234 ft 442 kts 74°
2026-04-15 11:55 50.38320 11.15300 19234 ft 442 kts 74°
2026-04-15 11:55 50.39145 11.19944 19238 ft 442 kts 74°
2026-04-15 11:56 50.39968 11.24585 19240 ft 442 kts 74°
2026-04-15 11:56 50.40789 11.29231 19240 ft 442 kts 74°
2026-04-15 11:56 50.41606 11.33864 19244 ft 442 kts 74°
2026-04-15 11:56 50.42425 11.38515 19244 ft 442 kts 74°
2026-04-15 11:57 50.43240 11.43160 19249 ft 442 kts 74°
2026-04-15 11:57 50.44863 11.52451 19247 ft 442 kts 74°
2026-04-15 11:57 50.45019 11.53347 19251 ft 442 kts 74°
2026-04-15 11:58 50.45598 11.56671 19249 ft 442 kts 74°
2026-04-15 11:58 50.46405 11.61321 19249 ft 442 kts 74°
2026-04-15 11:58 50.47211 11.65970 19249 ft 442 kts 74°
2026-04-15 11:59 50.48015 11.70626 19251 ft 442 kts 74°
2026-04-15 11:59 50.48816 11.75278 19249 ft 441 kts 74°
2026-04-15 11:59 50.49616 11.79932 19251 ft 441 kts 74°
2026-04-15 11:59 50.50415 11.84591 19250 ft 441 kts 74°
2026-04-15 12:00 50.51210 11.89242 19248 ft 441 kts 75°
2026-04-15 12:00 50.52003 11.93899 19245 ft 441 kts 75°
2026-04-15 12:00 50.52784 11.98487 19250 ft 441 kts 75°
2026-04-15 12:00 50.53572 12.03138 19256 ft 440 kts 75°
2026-04-15 12:01 50.54359 12.07792 19261 ft 440 kts 75°
2026-04-15 12:01 50.55144 12.12445 19264 ft 441 kts 75°
2026-04-15 12:01 50.55931 12.17127 19273 ft 447 kts 75°
2026-04-15 12:01 50.56732 12.21903 19274 ft 455 kts 75°
2026-04-15 12:02 50.57540 12.26731 19262 ft 456 kts 75°
2026-04-15 12:02 50.58342 12.31540 19254 ft 453 kts 75°
2026-04-15 12:02 50.59139 12.36330 19271 ft 453 kts 75°
2026-04-15 12:02 50.59934 12.41129 19268 ft 453 kts 75°
2026-04-15 12:03 50.60729 12.45936 19261 ft 454 kts 75°
2026-04-15 12:03 50.61521 12.50739 19252 ft 453 kts 75°
2026-04-15 12:03 50.62310 12.55537 19267 ft 453 kts 75°
2026-04-15 12:03 50.63099 12.60346 19255 ft 453 kts 75°
2026-04-15 12:04 50.63886 12.65156 19259 ft 453 kts 75°
2026-04-15 12:04 50.64669 12.69957 19267 ft 453 kts 75°
2026-04-15 12:04 50.65451 12.74772 19259 ft 453 kts 75°
2026-04-15 12:04 50.66232 12.79589 19267 ft 453 kts 75°
2026-04-15 12:05 50.67009 12.84396 19263 ft 453 kts 75°
2026-04-15 12:05 50.67786 12.89216 19268 ft 453 kts 75°
2026-04-15 12:05 50.68559 12.94025 19260 ft 453 kts 75°
2026-04-15 12:05 50.69332 12.98844 19257 ft 453 kts 75°
2026-04-15 12:06 50.70101 13.03657 19271 ft 453 kts 75°
2026-04-15 12:06 50.70869 13.08481 19265 ft 453 kts 75°
2026-04-15 12:06 50.71635 13.13304 19254 ft 454 kts 75°
2026-04-15 12:06 50.72401 13.18138 19260 ft 453 kts 75°
2026-04-15 12:07 50.73163 13.22961 19264 ft 453 kts 75°
2026-04-15 12:07 50.73923 13.27792 19266 ft 454 kts 75°
2026-04-15 12:07 50.74683 13.32628 19265 ft 454 kts 76°
2026-04-15 12:07 50.75430 13.37402 19262 ft 454 kts 76°
2026-04-15 12:08 50.76185 13.42242 19264 ft 454 kts 76°
2026-04-15 12:08 50.76924 13.46993 19263 ft 454 kts 76°
2026-04-15 12:08 50.77677 13.51841 19267 ft 454 kts 76°
2026-04-15 12:08 50.78428 13.56695 19265 ft 454 kts 76°
2026-04-15 12:09 50.79175 13.61539 19265 ft 454 kts 76°
2026-04-15 12:09 50.79921 13.66393 19264 ft 454 kts 76°
2026-04-15 12:09 50.80666 13.71249 19261 ft 454 kts 76°
2026-04-15 12:09 50.81408 13.76101 19265 ft 454 kts 76°
2026-04-15 12:10 50.82149 13.80965 19261 ft 454 kts 76°
2026-04-15 12:10 50.82886 13.85817 19268 ft 454 kts 76°
2026-04-15 12:10 50.83624 13.90692 19269 ft 454 kts 76°
2026-04-15 12:10 50.84358 13.95549 19265 ft 454 kts 76°
2026-04-15 12:11 50.85090 14.00415 19267 ft 454 kts 76°
2026-04-15 12:11 50.85820 14.05279 19265 ft 454 kts 76°
2026-04-15 12:11 50.86547 14.10137 19269 ft 454 kts 76°
2026-04-15 12:11 50.87273 14.15005 19266 ft 454 kts 76°
2026-04-15 12:12 50.87997 14.19874 19266 ft 454 kts 76°
2026-04-15 12:12 50.88713 14.24711 19263 ft 454 kts 76°
2026-04-15 12:12 50.89434 14.29588 19263 ft 455 kts 76°
2026-04-15 12:12 50.90152 14.34458 19260 ft 455 kts 76°
2026-04-15 12:13 50.90869 14.39341 19261 ft 455 kts 76°
2026-04-15 12:13 50.91572 14.44145 19266 ft 455 kts 76°
2026-04-15 12:13 50.92285 14.49032 19261 ft 455 kts 76°
2026-04-15 12:13 50.92996 14.53922 19267 ft 455 kts 76°
2026-04-15 12:14 50.93705 14.58812 19265 ft 455 kts 76°
2026-04-15 12:14 50.94412 14.63704 19264 ft 455 kts 76°
2026-04-15 12:14 50.95117 14.68594 19270 ft 455 kts 76°
2026-04-15 12:14 50.95812 14.73436 19265 ft 456 kts 77°
2026-04-15 12:15 50.96514 14.78338 19264 ft 456 kts 77°
2026-04-15 12:15 50.97213 14.83240 19265 ft 456 kts 77°
2026-04-15 12:15 50.97911 14.88144 19268 ft 456 kts 77°
2026-04-15 12:15 50.98605 14.93044 19265 ft 456 kts 77°
2026-04-15 12:16 50.99300 14.97957 19267 ft 456 kts 77°
2026-04-15 12:16 50.99991 15.02863 19263 ft 456 kts 77°
2026-04-15 12:16 51.00681 15.07777 19263 ft 456 kts 77°
2026-04-15 12:16 51.01367 15.12687 19266 ft 456 kts 77°
2026-04-15 12:17 51.02053 15.17602 19265 ft 456 kts 77°
2026-04-15 12:17 51.02737 15.22525 19262 ft 456 kts 77°
2026-04-15 12:17 51.03419 15.27448 19268 ft 456 kts 77°
2026-04-15 12:17 51.04099 15.32371 19268 ft 456 kts 77°
2026-04-15 12:18 51.04778 15.37300 19266 ft 457 kts 77°
2026-04-15 12:18 51.05453 15.42224 19268 ft 457 kts 77°
2026-04-15 12:18 51.06129 15.47166 19270 ft 457 kts 77°
2026-04-15 12:18 51.06802 15.52104 19269 ft 457 kts 77°
2026-04-15 12:19 51.07471 15.57037 19273 ft 457 kts 77°
2026-04-15 12:19 51.08141 15.61988 19267 ft 457 kts 77°
2026-04-15 12:19 51.08808 15.66933 19268 ft 457 kts 77°
2026-04-15 12:19 51.09473 15.71881 19271 ft 457 kts 77°
2026-04-15 12:20 51.10136 15.76830 19267 ft 457 kts 77°
2026-04-15 12:20 51.10797 15.81783 19269 ft 457 kts 77°
2026-04-15 12:20 51.11456 15.86738 19271 ft 457 kts 77°
2026-04-15 12:20 51.12104 15.91626 19271 ft 457 kts 77°
2026-04-15 12:21 51.12758 15.96581 19267 ft 457 kts 77°
2026-04-15 12:21 51.13411 16.01536 19271 ft 457 kts 77°
2026-04-15 12:21 51.14061 16.06490 19276 ft 457 kts 78°
2026-04-15 12:21 51.14708 16.11446 19271 ft 457 kts 78°
2026-04-15 12:22 51.15355 16.16411 19270 ft 457 kts 78°
2026-04-15 12:22 51.15999 16.21369 19271 ft 458 kts 78°
2026-04-15 12:22 51.16641 16.26335 19270 ft 458 kts 78°
2026-04-15 12:22 51.17073 16.29688 19273 ft 458 kts 78°
2026-04-15 12:23 51.17712 16.34660 19268 ft 458 kts 78°
2026-04-15 12:23 51.18348 16.39626 19268 ft 458 kts 78°
2026-04-15 12:23 51.18983 16.44598 19268 ft 458 kts 78°
2026-04-15 12:23 51.19616 16.49571 19271 ft 458 kts 78°
2026-04-15 12:24 51.20248 16.54556 19270 ft 458 kts 78°
2026-04-15 12:24 51.20868 16.59473 19268 ft 458 kts 78°
2026-04-15 12:24 51.21494 16.64448 19273 ft 458 kts 78°
2026-04-15 12:24 51.22119 16.69432 19273 ft 458 kts 78°
2026-04-15 12:25 51.22742 16.74417 19273 ft 458 kts 78°
2026-04-15 12:25 51.23362 16.79401 19274 ft 458 kts 78°
2026-04-15 12:25 51.23980 16.84390 19274 ft 459 kts 78°
2026-04-15 12:25 51.24598 16.89387 19265 ft 459 kts 78°
2026-04-15 12:26 51.25213 16.94384 19272 ft 459 kts 78°
2026-04-15 12:26 51.25826 16.99387 19273 ft 459 kts 78°
2026-04-15 12:26 51.26437 17.04384 19270 ft 459 kts 78°
2026-04-15 12:26 51.27046 17.09390 19270 ft 459 kts 78°
2026-04-15 12:27 51.27653 17.14393 19266 ft 459 kts 78°
2026-04-15 12:27 51.28258 17.19402 19268 ft 459 kts 78°
2026-04-15 12:27 51.28853 17.24351 19265 ft 459 kts 78°
2026-04-15 12:27 51.29453 17.29360 19263 ft 459 kts 78°
2026-04-15 12:28 51.30051 17.34369 19262 ft 459 kts 78°
2026-04-15 12:28 51.30648 17.39384 19256 ft 459 kts 78°
2026-04-15 12:28 51.31242 17.44398 19260 ft 459 kts 78°
2026-04-15 12:28 51.31834 17.49415 19262 ft 459 kts 78°
2026-04-15 12:29 51.32423 17.54427 19257 ft 459 kts 78°
2026-04-15 12:29 51.33011 17.59444 19254 ft 459 kts 79°
2026-04-15 12:29 51.33597 17.64468 19260 ft 459 kts 79°
2026-04-15 12:29 51.34173 17.69420 18991 ft 448 kts 79°
2026-04-15 12:30 51.34737 17.74299 18371 ft 445 kts 79°
2026-04-15 12:30 51.35298 17.79165 17495 ft 445 kts 79°
2026-04-15 12:30 51.35857 17.84026 16729 ft 443 kts 79°
2026-04-15 12:30 51.36408 17.88844 16114 ft 438 kts 79°
2026-04-15 12:31 51.36950 17.93603 15546 ft 432 kts 79°
2026-04-15 12:31 51.37489 17.98344 15372 ft 434 kts 79°
2026-04-15 12:31 51.38025 18.03084 15267 ft 431 kts 79°
2026-04-15 12:31 51.38556 18.07802 15262 ft 431 kts 79°
2026-04-15 12:32 51.39087 18.12524 15255 ft 431 kts 79°
2026-04-15 12:32 51.39616 18.17252 15247 ft 431 kts 79°
2026-04-15 12:32 51.40143 18.21978 15243 ft 431 kts 79°
2026-04-15 12:32 51.40667 18.26701 15243 ft 430 kts 79°
2026-04-15 12:33 51.41188 18.31416 15246 ft 430 kts 79°
2026-04-15 12:33 51.41708 18.36135 15254 ft 430 kts 79°
2026-04-15 12:33 51.42226 18.40859 15248 ft 430 kts 79°
2026-04-15 12:33 51.42743 18.45584 15250 ft 431 kts 79°
2026-04-15 12:34 51.43257 18.50312 15249 ft 431 kts 79°
2026-04-15 12:34 51.43771 18.55043 15248 ft 431 kts 79°
2026-04-15 12:34 51.44283 18.59783 15249 ft 431 kts 79°
2026-04-15 12:34 51.44793 18.64527 15257 ft 431 kts 79°
2026-04-15 12:35 51.45301 18.69266 15248 ft 431 kts 79°
2026-04-15 12:35 51.45806 18.74000 15241 ft 431 kts 79°
2026-04-15 12:35 51.46309 18.78735 15246 ft 431 kts 80°
2026-04-15 12:35 51.46811 18.83475 15247 ft 431 kts 80°
2026-04-15 12:36 51.47312 18.88220 15248 ft 432 kts 80°
2026-04-15 12:36 51.47811 18.92973 15244 ft 432 kts 80°
2026-04-15 12:36 51.48307 18.97715 15245 ft 431 kts 80°
2026-04-15 12:36 51.48802 19.02465 15247 ft 431 kts 80°
2026-04-15 12:37 51.49294 19.07209 15245 ft 431 kts 80°
2026-04-15 12:37 51.49784 19.11957 15246 ft 431 kts 80°
2026-04-15 12:37 51.50267 19.16644 15243 ft 431 kts 80°
2026-04-15 12:37 51.50753 19.21387 15244 ft 431 kts 80°
2026-04-15 12:38 51.51219 19.25953 15244 ft 431 kts 80°
2026-04-15 12:38 51.51701 19.30700 15244 ft 431 kts 80°
2026-04-15 12:38 51.52182 19.35451 15242 ft 429 kts 80°
2026-04-15 12:38 51.52648 19.40075 15227 ft 411 kts 80°
2026-04-15 12:39 51.53091 19.44501 15220 ft 392 kts 80°
2026-04-15 12:39 51.53520 19.48789 15225 ft 375 kts 80°
2026-04-15 12:39 51.53923 19.52845 15225 ft 360 kts 80°
2026-04-15 12:39 51.54309 19.56735 15222 ft 346 kts 80°
2026-04-15 12:40 51.54681 19.60491 15142 ft 338 kts 80°
2026-04-15 12:40 51.55053 19.64250 14610 ft 344 kts 80°
2026-04-15 12:40 51.55431 19.68090 14013 ft 351 kts 80°
2026-04-15 12:40 51.55806 19.71912 13560 ft 350 kts 80°
2026-04-15 12:41 51.56181 19.75761 13190 ft 347 kts 81°
2026-04-15 12:41 51.56552 19.79581 12813 ft 345 kts 81°
2026-04-15 12:41 51.56921 19.83383 12420 ft 343 kts 81°
2026-04-15 12:41 51.57287 19.87162 12037 ft 341 kts 81°
2026-04-15 12:42 51.57649 19.90920 11667 ft 339 kts 81°
2026-04-15 12:42 51.58007 19.94656 11304 ft 337 kts 81°
2026-04-15 12:42 51.58593 19.98281 10922 ft 335 kts 67°
2026-04-15 12:42 51.59547 20.01681 10597 ft 332 kts 64°
2026-04-15 12:43 51.60514 20.05031 10207 ft 327 kts 64°
2026-04-15 12:43 51.61457 20.08344 9577 ft 325 kts 65°
2026-04-15 12:43 51.62391 20.11664 8933 ft 324 kts 65°
2026-04-15 12:43 51.63309 20.14962 8367 ft 321 kts 65°
2026-04-15 12:44 51.64210 20.18226 7822 ft 318 kts 65°
2026-04-15 12:44 51.65104 20.21482 7323 ft 319 kts 66°
2026-04-15 12:44 51.65994 20.24733 7031 ft 313 kts 66°
2026-04-15 12:44 51.66860 20.27906 6553 ft 308 kts 66°
2026-04-15 12:45 51.67721 20.31070 5907 ft 308 kts 66°
2026-04-15 12:45 51.68578 20.34223 5417 ft 305 kts 66°
2026-04-15 12:45 51.69438 20.37395 5314 ft 309 kts 66°
2026-04-15 12:45 51.70293 20.40552 5239 ft 306 kts 66°
2026-04-15 12:46 51.71142 20.43687 5229 ft 305 kts 66°
2026-04-15 12:46 51.71990 20.46829 5228 ft 306 kts 66°
2026-04-15 12:46 51.72826 20.49931 5222 ft 306 kts 66°
2026-04-15 12:46 51.73673 20.53074 5223 ft 306 kts 66°
2026-04-15 12:47 51.74518 20.56219 5225 ft 306 kts 66°
2026-04-15 12:47 51.75364 20.59368 5226 ft 306 kts 66°
2026-04-15 12:47 51.76209 20.62519 5234 ft 306 kts 66°
2026-04-15 12:47 51.77053 20.65670 5225 ft 306 kts 66°
2026-04-15 12:48 51.77898 20.68829 5220 ft 306 kts 66°
2026-04-15 12:48 51.78740 20.71982 5222 ft 306 kts 66°
2026-04-15 12:48 51.79580 20.75135 5230 ft 306 kts 66°
2026-04-15 12:48 51.80420 20.78289 5223 ft 306 kts 66°
2026-04-15 12:49 51.81254 20.81425 5227 ft 306 kts 66°
2026-04-15 12:49 51.82093 20.84583 5223 ft 305 kts 66°
2026-04-15 12:49 51.82919 20.87696 5208 ft 296 kts 66°
2026-04-15 12:49 51.83712 20.90689 5204 ft 282 kts 66°
2026-04-15 12:50 51.84468 20.93544 5200 ft 270 kts 66°
2026-04-15 12:50 51.85186 20.96267 5202 ft 257 kts 66°
2026-04-15 12:50 51.85870 20.98860 5208 ft 244 kts 66°
2026-04-15 12:50 51.86516 21.01310 5231 ft 229 kts 66°
2026-04-15 12:51 51.87118 21.03591 5212 ft 212 kts 66°
2026-04-15 12:51 51.87673 21.05702 5209 ft 199 kts 66°
2026-04-15 12:51 51.88212 21.07753 5236 ft 198 kts 66°
2026-04-15 12:51 51.88751 21.09805 5235 ft 199 kts 66°
2026-04-15 12:52 51.89286 21.11847 5133 ft 195 kts 66°
2026-04-15 12:52 51.89816 21.13854 4848 ft 193 kts 64°
2026-04-15 12:52 51.90641 21.15526 4332 ft 193 kts 32°
2026-04-15 12:52 51.91842 21.16441 3886 ft 190 kts 12°
2026-04-15 12:53 51.93144 21.16628 3459 ft 187 kts 352°
2026-04-15 12:53 51.94372 21.16010 3267 ft 186 kts 328°
2026-04-15 12:53 51.95496 21.14967 3224 ft 182 kts 330°
2026-04-15 12:53 51.96553 21.14058 3228 ft 162 kts 330°
2026-04-15 12:54 51.97519 21.13248 3204 ft 153 kts 330°
2026-04-15 12:54 51.98466 21.12442 3223 ft 155 kts 330°
2026-04-15 12:54 51.99420 21.11622 3211 ft 155 kts 329°
2026-04-15 12:54 52.00359 21.10810 3229 ft 155 kts 330°
2026-04-15 12:55 52.01335 21.10024 3215 ft 157 kts 332°
2026-04-15 12:55 52.02308 21.09232 3225 ft 156 kts 330°
2026-04-15 12:55 52.03268 21.08407 3119 ft 156 kts 330°
2026-04-15 12:55 52.04221 21.07574 2911 ft 153 kts 330°
2026-04-15 12:56 52.05151 21.06758 2701 ft 150 kts 330°
2026-04-15 12:56 52.06059 21.05953 2519 ft 148 kts 330°
2026-04-15 12:56 52.06970 21.05158 2307 ft 148 kts 330°
2026-04-15 12:56 52.07870 21.04370 2104 ft 147 kts 330°
2026-04-15 12:57 52.08770 21.03572 1924 ft 149 kts 330°
2026-04-15 12:57 52.09681 21.02773 1710 ft 148 kts 330°
2026-04-15 12:57 52.10585 21.01982 1490 ft 147 kts 330°
2026-04-15 12:57 52.11479 21.01196 1302 ft 146 kts 330°
2026-04-15 12:58 52.12368 21.00413 1094 ft 144 kts 330°
2026-04-15 12:58 52.13253 20.99637 898 ft 146 kts 329°
2026-04-15 12:58 52.14138 20.98858 696 ft 143 kts 329°
2026-04-15 12:58 52.15009 20.98097 501 ft 141 kts 328°
2026-04-15 12:59 52.16602 20.96689 337 ft 90 kts 332°
2026-04-15 12:59 52.16964 20.96367 334 ft 41 kts 331°
2026-04-15 12:59 52.17207 20.96241 335 ft 25 kts
2026-04-15 13:00 52.17370 20.96263 334 ft 17 kts 22°
2026-04-15 13:00 52.17385 20.96282 336 ft 0 kts 45°
2026-04-15 13:00 52.17420 20.96367 332 ft 22 kts 62°
2026-04-15 13:00 52.17466 20.96550 335 ft 17 kts 108°
2026-04-15 13:01 52.17369 20.96656 335 ft 17 kts 152°
2026-04-15 13:01 52.17268 20.96745 333 ft 16 kts 151°
2026-04-15 13:01 52.17172 20.96832 334 ft 16 kts 151°
2026-04-15 13:01 52.17078 20.96911 332 ft 15 kts 152°
2026-04-15 13:02 52.16991 20.96989 333 ft 11 kts 141°
2026-04-15 13:02 52.16992 20.97101 335 ft 10 kts 72°
2026-04-15 13:02 52.17002 20.97151 335 ft 0 kts 72°